#timestamp,LO_Frequency,Hit,StdDev 
1643529615.8,286046998.6,N
1643529635.6,286046998.5,N
1643529655.5,286046998.2,N
1643529675.3,286046998.1,N
1643529695.2,286047000.0,N
1643529715.9,286047001.0,N
1643529735.7,286047000.9,N
1643529755.6,286046998.2,N
1643529775.4,286046999.1,N
1643529795.3,286046998.9,N
1643529815.1,286046998.3,N
1643529816.0,286046998.3,N
1643529835.8,286046998.9,N
1643529855.7,286046999.0,N
1643529875.5,286046998.6,N
1643529895.3,286046998.2,N
1643529915.2,286047000.6,N
1643529935.0,286047000.7,N
1643529935.9,286047000.7,N
1643529955.8,286047000.5,N
1643529975.6,286047000.5,N
1643529995.4,286047002.4,N
1643530015.3,286047000.0,N
1643530035.1,286047000.1,N
1643530055.8,286047002.8,N
1643530075.7,286047002.3,N
1643530095.5,286047000.3,N
1643530115.4,286047000.6,N
1643530135.2,286047002.7,N
1643530155.0,286047000.4,N
1643530155.9,286047000.4,N
1643530175.8,286047000.8,N
1643530195.6,286047000.9,N
1643530215.4,286047000.4,N
1643530235.3,286047000.1,N
1643530255.1,286047000.6,N
1643530275.9,286047000.4,N
1643530295.7,286047000.8,N
1643530315.5,286047000.5,N
1643530335.4,286046999.7,N
1643530355.2,286047002.7,N
1643530375.0,286047001.4,N
1643530375.9,286047001.4,N
1643530395.8,286047002.1,N
1643530415.6,286047000.0,N
1643530435.5,286046998.2,N
1643530455.3,286047000.9,N
1643530475.1,286047000.8,N
1643530495.9,286047000.9,N
1643530515.7,286047001.9,N
1643530535.6,286047002.3,N
1643530555.4,286047002.2,N
1643530575.2,286047002.8,N
1643530595.1,286047002.3,N
1643530596.0,286047002.3,N
1643530615.8,286047000.2,N
1643530635.6,286047004.3,Y
1643530655.5,286047002.5,P
1643530675.3,286047000.6,N
1643530695.2,286047002.4,N
1643530715.9,286047000.0,N
1643530735.7,286047000.5,N
1643530755.6,286047000.6,N
1643530775.4,286047000.0,N
1643530795.2,286047000.6,N
1643530815.1,286047000.9,N
1643530816.0,286047000.9,N
1643530835.8,286047000.2,N
1643530855.7,286047002.4,Y
1643530875.5,286047000.5,P
1643530895.3,286047002.0,P
1643530915.2,286047002.4,P
1643530935.0,286047002.3,N
1643530935.9,286047002.3,N
1643530955.8,286047001.6,N
1643530975.6,286047004.4,Y
1643530995.4,286046998.2,P
1643531015.3,286046999.5,N
1643531035.1,286046998.4,N
1643531055.9,286047001.2,N
1643531075.7,286046998.1,N
1643531095.5,286046998.5,N
1643531115.4,286046998.5,N
1643531135.2,286046996.5,N
1643531155.0,286046997.8,N
1643531155.9,286046997.8,N
1643531175.8,286046998.6,N
1643531195.6,286046998.6,N
1643531215.5,286046998.5,N
1643531235.3,286046999.2,N
1643531255.1,286046999.6,N
1643531275.9,286047001.1,N
1643531295.7,286046996.5,N
1643531315.5,286046997.1,N
1643531335.4,286046998.9,N
1643531355.2,286046999.6,N
1643531375.1,286046999.1,N
1643531376.0,286046999.1,N
1643531395.8,286046996.7,N
1643531415.6,286046997.1,N
1643531435.5,286046997.5,N
1643531455.3,286046999.5,N
1643531475.2,286046998.4,N
1643531495.9,286046998.9,N
1643531515.7,286047001.1,N
1643531535.6,286046999.1,N
1643531555.4,286046995.5,Y
1643531575.2,286046999.0,P
1643531625.1,286047002.5,E
1643531635.0,286047001.1,N
1643531635.9,286047001.1,P
1643531655.7,286046997.5,P
1643531675.6,286046996.2,N
1643531695.4,286046996.4,N
1643531715.3,286046996.2,N
1643531735.1,286046995.5,N
1643531736.0,286046995.5,N
1643531755.8,286046995.8,N
1643531775.7,286046995.2,N
1643531795.5,286046997.6,N
1643531815.3,286046997.2,N
1643531835.2,286046997.9,N
1643531855.0,286046998.0,N
1643531855.9,286046998.0,N
1643531875.8,286046999.4,N
1643531895.6,286046999.0,N
1643531915.4,286046999.6,N
1643531935.3,286046999.2,N
1643531955.1,286046996.5,N
1643531975.8,286046999.3,N
1643531995.7,286046999.3,N
1643532015.5,286046999.1,N
1643532035.4,286046994.9,N
1643532055.2,286046997.3,N
1643532075.0,286046999.2,N
1643532075.9,286046999.2,N
1643532095.8,286046996.6,N
1643532115.6,286046998.4,N
1643532135.4,286046996.6,N
1643532155.3,286046999.5,N
1643532175.1,286046999.5,N
1643532195.9,286046996.7,N
1643532215.7,286046996.6,N
1643532235.5,286046996.5,N
1643532255.4,286046997.2,N
1643532275.2,286046997.5,N
1643532295.0,286046998.0,N
1643532295.9,286046998.0,N
1643532315.8,286046996.8,N
1643532335.6,286046997.3,N
1643532355.5,286046997.7,N
1643532375.3,286046997.6,N
1643532395.1,286046997.7,N
1643532415.9,286046996.9,N
1643532435.7,286046997.7,N
1643532455.5,286046997.4,N
1643532475.4,286046995.2,Y
1643532495.2,286046999.4,P
1643532515.1,286046998.4,N
1643532516.0,286046998.4,N
1643532535.8,286047000.9,N
1643532555.6,286046998.2,N
1643532575.5,286047000.1,N
1643532595.3,286047000.6,N
1643532615.1,286047001.2,N
1643532635.9,286047002.2,N
1643532655.7,286047004.0,N
1643532675.6,286047001.6,N
1643532695.4,286047002.4,N
1643532715.2,286047000.8,N
1643532735.1,286046999.2,N
1643532736.0,286046999.2,N
1643532755.8,286046999.1,N
1643532775.6,286046997.0,N
1643532795.5,286046997.7,N
1643532815.3,286046999.5,N
1643532835.2,286046998.1,N
1643532855.9,286046998.4,N
1643532875.5,286047000.9,N
1643532895.3,286046998.5,N
1643532915.1,286046999.2,N
1643532935.9,286046998.3,N
1643532955.7,286047000.0,N
1643532975.5,286046999.9,N
1643532995.4,286046999.9,N
1643533015.2,286046999.9,N
1643533035.1,286046999.7,N
1643533036.0,286046999.7,N
1643533055.8,286047002.6,N
1643533075.6,286047001.7,N
1643533095.5,286047001.8,N
1643533115.3,286047002.2,N
1643533135.1,286047004.0,N
1643533155.9,286047004.2,N
1643533175.7,286047001.6,N
1643533195.6,286047001.8,N
